GFSFLT1_925_spd_021.txt.gz
Wind_Speed
22 19 25 24 25 27 35 34 39 39 41 38 40 42 41 39 37 32 31 27 29 29 28 25 26 24 23 21 20 19 16 16 15
22 19 18 25 23 31 35 37 40 42 40 40 41 40 41 41 37 36 33 29 22 27 23 24 27 30 28 25 21 23 21 19 19
17 17 23 23 22 26 37 41 40 42 42 43 41 41 38 40 41 40 37 28 31 24 27 23 31 34 32 28 24 24 24 23 19
17 29 23 22 23 30 39 40 38 39 41 41 39 40 39 36 37 40 38 35 33 33 26 27 23 36 35 32 29 28 28 26 24
11 9 26 22 22 23 31 39 40 39 39 42 43 41 38 39 35 36 39 40 36 36 33 31 32 34 37 35 33 31 31 30 27
6 8 12 20 20 21 21 34 38 39 39 41 41 40 38 36 36 36 37 41 40 36 38 38 34 36 39 39 35 33 34 33 30
8 10 10 16 20 22 22 33 37 40 39 40 41 39 38 37 38 41 40 38 39 42 38 41 41 39 41 41 38 36 35 34 32
9 7 8 10 21 19 20 27 34 39 41 42 41 40 39 40 40 38 36 36 36 39 38 40 42 40 39 39 37 37 38 40 37
12 7 8 12 19 22 21 25 31 37 39 42 43 40 41 38 37 37 37 36 35 35 39 35 39 39 38 37 38 39 38 40 37
6 8 10 10 10 19 19 29 37 36 41 42 41 41 39 40 38 37 38 35 35 36 36 33 36 36 37 38 38 38 35 33 32
5 4 7 11 9 9 23 31 34 39 37 40 42 39 40 41 41 40 37 37 36 36 33 35 33 35 36 36 34 35 35 31 28
12 11 9 8 8 16 24 33 38 36 35 37 39 37 39 41 42 40 38 36 36 33 32 29 28 33 32 32 32 30 29 27 27
5 7 10 13 20 20 21 29 35 35 35 36 35 40 41 39 40 38 37 36 34 30 29 27 30 27 29 33 32 28 28 25 27
4 8 12 26 28 13 28 31 29 29 33 33 43 35 32 34 36 35 34 34 31 30 29 27 27 28 25 25 26 24 23 22 24
8 2 5 13 9 11 26 31 32 25 24 32 32 29 33 31 32 30 34 34 33 33 30 28 24 22 19 19 20 21 21 20 25
8 7 5 6 7 7 16 30 32 21 25 31 32 30 31 31 33 32 35 36 30 26 25 24 21 20 18 17 17 16 17 18 21
12 11 7 10 13 13 10 21 22 27 33 35 34 29 28 29 31 30 29 26 26 26 22 21 20 19 17 16 14 16 17 18 20
10 9 12 10 11 12 14 23 23 26 32 36 32 30 28 28 28 29 28 24 18 23 22 21 21 18 18 17 17 20 17 17 17
11 10 15 8 14 19 20 27 27 28 29 37 35 27 23 24 26 28 29 27 22 17 16 14 12 13 15 15 14 14 15 13 12
15 18 13 8 9 14 21 24 24 27 30 30 28 27 27 28 25 24 23 25 25 21 15 13 12 11 14 10 16 19 17 14 12

GFSFLT1_925_spd_024.txt.gz
Wind_Speed
22 23 24 26 26 29 36 36 39 40 40 39 41 44 45 44 41 36 33 30 31 26 29 35 30 30 29 25 24 21 21 18 16
23 26 25 28 26 32 38 36 41 43 42 41 42 44 43 43 42 39 37 34 29 28 33 35 32 31 30 29 25 23 23 20 17
26 29 30 27 24 29 38 41 42 43 45 47 46 45 43 43 45 43 39 36 34 30 35 33 34 32 32 30 26 25 25 22 20
28 28 28 23 23 32 40 40 38 40 40 42 41 42 41 38 41 42 41 41 37 35 35 36 35 35 34 33 31 28 29 27 24
25 23 21 21 22 23 29 35 36 40 39 41 42 42 41 40 38 39 41 45 43 36 36 38 35 35 38 38 36 32 32 31 30
5 6 8 13 17 19 20 33 36 38 39 42 41 40 39 37 37 38 43 45 42 44 39 40 37 36 36 40 39 37 34 34 34
15 14 10 16 18 21 21 34 37 38 39 42 41 41 40 38 39 42 44 45 42 42 44 42 42 38 36 37 40 39 38 36 36
10 11 11 15 14 15 18 28 35 36 38 40 43 42 41 42 43 41 40 39 39 40 40 42 42 41 38 37 39 42 42 39 38
10 16 15 17 23 26 23 26 34 38 38 40 41 41 43 42 40 39 39 38 37 37 38 40 41 40 40 40 40 41 42 40 40
9 9 10 17 19 20 21 31 37 36 40 38 41 42 38 40 39 39 40 38 35 35 37 35 38 39 38 40 41 42 41 39 39
10 10 7 9 14 20 29 38 36 40 37 39 40 40 38 38 39 39 38 37 37 35 34 35 36 37 39 40 42 41 39 37 36
5 8 9 9 17 21 29 27 32 33 33 37 36 36 38 40 40 38 36 37 36 34 32 31 33 38 39 40 41 39 38 33 31
3 2 2 5 20 25 23 26 33 31 33 36 37 41 43 44 41 38 38 37 35 33 34 34 32 33 36 39 38 37 35 32 31
2 2 6 7 16 16 29 34 29 28 32 33 45 46 41 36 39 40 38 34 33 33 33 28 30 29 30 31 35 32 29 28 27
2 6 7 8 6 11 22 33 35 30 28 41 41 34 33 34 36 36 34 35 32 33 31 28 28 30 25 25 26 24 22 21 20
6 7 7 13 7 11 21 26 30 27 39 37 34 34 33 34 33 34 35 36 32 30 32 28 25 21 19 23 20 19 19 20 20
7 7 7 9 10 6 8 22 31 33 36 39 36 33 32 32 34 34 33 35 36 33 31 26 24 30 25 24 25 23 21 22 21
6 6 7 11 7 9 16 18 24 28 27 32 32 30 27 26 26 27 29 27 22 24 24 30 28 26 29 24 20 23 20 22 23
7 8 9 7 12 13 15 25 34 19 36 38 32 27 32 28 28 27 26 25 29 22 22 14 17 22 21 19 17 18 16 16 15
8 11 12 11 13 17 16 11 30 42 26 36 36 31 25 23 26 27 28 27 32 17 18 20 18 22 21 18 20 18 19 15 13

GFSFLT1_925_spd_030.txt.gz
Wind_Speed
23 21 22 23 24 26 31 37 37 37 38 39 40 44 45 47 46 40 42 39 37 33 33 31 29 26 26 27 24 21 20 21 19
16 20 22 24 24 30 34 34 38 40 39 40 40 42 44 42 44 40 37 39 41 38 34 30 28 28 28 30 28 25 23 23 22
18 18 20 22 21 27 35 38 41 41 42 43 43 46 44 44 45 46 43 41 42 40 37 33 30 28 27 31 31 28 26 26 24
18 16 19 20 21 30 37 36 34 40 40 39 40 39 40 40 39 41 41 42 44 41 38 36 32 32 28 30 33 31 29 29 26
11 14 17 19 21 22 27 33 33 37 39 39 43 42 41 41 42 42 41 44 45 42 39 37 33 34 33 31 34 34 33 33 30
8 10 10 10 10 15 18 30 34 35 38 42 39 39 40 39 39 40 41 43 42 44 40 38 37 35 35 34 36 36 35 35 34
10 9 11 9 10 16 16 29 35 35 38 39 38 38 38 39 41 43 43 43 43 45 44 42 40 42 40 37 37 37 36 37 37
7 10 8 9 10 13 15 22 30 33 34 36 38 37 38 42 40 42 41 40 42 43 44 46 45 44 44 43 40 40 39 38 39
10 11 11 9 11 11 13 19 28 33 35 38 40 40 42 38 37 39 40 40 40 41 43 42 42 44 45 44 45 44 42 40 39
13 13 12 11 12 15 16 25 32 31 35 35 39 41 39 39 39 39 39 38 38 40 40 41 42 41 41 44 46 45 43 40 38
15 12 11 11 11 11 21 29 29 33 30 37 38 39 37 35 38 40 37 36 39 41 39 41 40 41 43 40 44 45 44 41 40
14 12 10 10 13 18 20 25 29 29 26 28 30 30 33 37 40 38 37 39 41 39 36 37 40 36 37 41 40 45 45 42 41
12 11 8 8 13 10 15 25 28 27 25 29 30 34 39 41 41 40 39 41 39 37 35 34 31 33 37 42 43 44 43 43 41
5 4 2 2 1 4 4 11 22 23 24 26 39 35 32 33 35 38 41 34 33 33 31 28 29 31 32 36 43 42 43 42 38
5 7 7 11 10 11 8 6 17 14 18 26 18 22 24 28 34 36 34 34 29 27 26 26 26 25 27 31 38 43 41 41 44
6 7 6 10 12 12 18 12 6 5 3 2 11 18 25 28 27 27 27 28 29 29 30 27 28 29 26 27 28 35 39 34 35
7 6 7 10 14 11 12 21 24 18 10 4 3 15 21 21 22 21 23 25 30 29 32 37 38 35 30 26 28 31 35 35 41
6 7 7 11 11 10 11 16 17 19 19 14 10 1 10 17 22 25 24 22 23 26 26 24 21 20 20 17 11 14 24 28 38
8 8 10 11 13 13 13 16 16 12 11 13 11 6 3 12 18 20 22 20 10 19 24 25 26 26 29 26 25 23 18 15 8
11 14 14 14 14 16 17 17 16 12 12 10 7 4 4 8 16 21 22 22 23 19 27 33 32 32 37 34 32 23 20 17 21

GFSFLT1_925_spd_033.txt.gz
Wind_Speed
20 22 24 26 25 28 31 36 36 36 36 37 37 39 39 39 38 33 34 29 26 24 21 22 21 24 22 19 20 20 17 14 15
18 22 23 26 26 30 32 34 37 39 39 38 37 39 39 38 38 36 33 32 33 28 25 22 23 25 25 22 21 22 19 15 18
19 20 21 22 23 29 35 37 40 39 40 40 41 40 40 40 41 41 39 33 33 32 28 30 24 26 24 24 22 23 22 18 18
20 19 20 21 21 30 35 35 34 38 40 40 38 40 40 38 37 37 36 36 36 36 34 35 32 30 25 25 23 23 25 23 20
13 15 17 18 20 22 27 32 33 37 38 40 43 43 41 41 39 39 38 39 38 37 36 37 36 34 29 26 25 25 27 26 23
12 12 14 14 14 17 20 29 33 36 40 43 41 39 39 38 39 38 39 39 38 37 37 37 34 33 33 28 27 27 27 29 29
10 10 11 10 12 15 18 27 31 35 37 38 38 39 40 40 41 43 41 39 39 39 40 35 37 38 36 32 30 30 29 29 29
10 11 11 11 12 13 14 20 26 32 33 34 38 37 37 42 41 39 38 38 38 39 37 40 40 39 37 34 31 32 32 30 30
15 14 14 13 11 12 15 20 27 31 33 36 37 38 42 39 37 38 40 39 39 38 38 38 37 37 39 38 37 37 39 38 33
16 15 14 13 13 13 13 23 30 31 37 33 36 39 37 35 35 37 39 37 37 38 38 37 38 38 39 40 42 43 47 45 37
20 18 18 15 15 13 21 27 27 32 28 35 37 35 32 31 33 35 36 37 40 39 38 39 39 38 39 39 42 46 50 48 44
19 19 17 14 19 17 16 19 26 25 26 28 28 31 33 35 39 37 35 37 40 39 37 36 37 34 34 39 40 44 48 47 43
21 18 15 12 16 13 14 16 20 24 27 27 29 33 38 35 33 34 36 38 35 34 35 35 33 34 36 38 38 40 46 46 39
12 12 12 15 11 9 7 10 20 23 23 26 32 21 22 25 28 31 30 27 26 25 26 27 33 34 35 38 39 36 42 47 41
7 7 5 6 7 5 2 6 18 16 17 18 16 19 23 25 27 27 26 27 25 25 23 27 28 29 27 28 31 37 36 43 46
8 8 8 9 11 13 10 7 12 13 11 12 15 18 20 21 24 25 26 28 28 26 30 33 32 29 29 31 37 40 46 43 44
8 8 10 12 12 14 13 14 14 10 8 8 11 15 18 20 22 23 26 26 29 30 26 32 31 29 28 26 25 28 31 37 31
10 10 12 13 11 11 14 12 13 10 8 7 9 11 14 17 20 23 23 29 30 28 34 40 33 32 29 24 22 30 31 30 30
10 9 10 12 12 13 11 11 9 6 5 5 6 5 7 10 13 17 23 23 26 34 36 37 41 34 30 26 33 32 33 37 38
12 12 12 12 12 12 11 9 8 3 2 1 2 3 3 3 5 8 11 14 17 17 30 31 33 38 38 41 38 37 44 44 41

GFSFLT1_925_spd_036.txt.gz
Wind_Speed
18 21 22 24 26 30 34 38 39 37 36 35 36 36 35 35 34 32 30 27 25 22 21 19 17 20 21 19 17 16 15 13 12
18 21 22 25 26 33 35 36 38 39 37 37 36 37 36 36 35 35 33 31 29 27 22 20 20 21 22 20 19 17 16 15 14
18 21 23 22 22 29 37 39 41 42 43 42 42 39 37 36 36 36 36 32 31 29 27 26 21 23 23 22 20 19 19 17 17
19 19 20 20 21 28 33 34 36 39 40 40 39 40 40 38 37 36 35 35 35 34 30 28 28 26 24 24 23 23 22 21 19
18 17 16 16 18 20 26 32 34 38 39 40 40 39 38 39 38 37 37 37 36 34 33 32 31 30 27 26 25 25 25 25 24
7 10 8 10 12 16 18 27 32 35 37 41 41 38 39 38 38 38 38 37 38 37 36 35 33 32 32 30 29 28 28 27 27
4 8 9 10 12 15 17 23 26 31 35 37 37 38 40 39 40 41 39 39 39 39 39 37 36 36 34 34 33 31 31 30 29
10 6 5 7 11 12 13 18 23 28 33 33 35 35 38 39 41 38 37 38 39 38 36 38 38 37 36 36 35 35 35 34 32
14 16 17 14 11 12 12 17 22 26 30 33 34 32 38 35 35 36 38 37 37 37 38 38 38 37 38 38 38 38 40 38 35
14 14 16 14 12 13 12 16 20 23 29 28 32 35 33 34 34 36 36 35 35 38 39 38 39 39 39 40 42 43 46 48 40
19 20 20 15 14 15 14 18 19 22 22 28 31 32 33 35 35 34 32 34 38 38 37 38 38 39 40 40 42 45 47 48 45
19 19 19 18 21 21 18 19 21 20 23 26 29 32 35 35 33 31 31 34 35 31 31 32 34 34 34 39 40 45 47 49 41
17 16 15 15 23 22 21 20 16 16 21 25 29 33 33 30 31 31 33 32 31 30 30 32 32 34 36 37 38 41 48 51 42
18 17 17 20 20 19 20 17 17 19 20 26 27 25 26 28 30 31 31 29 31 32 33 32 32 31 33 36 38 39 45 52 47
20 20 21 21 14 16 15 14 17 18 19 20 20 22 24 25 26 27 27 28 29 30 29 31 32 36 35 41 42 42 45 52 59
19 18 14 13 13 12 11 12 16 16 16 18 19 21 21 22 23 26 24 27 28 28 30 30 32 32 28 31 34 38 45 47 53
15 11 9 11 7 8 6 6 10 13 15 17 18 18 18 20 21 22 23 24 26 27 29 30 30 28 25 26 34 35 36 41 48
12 7 9 5 5 6 7 8 8 9 10 12 14 14 15 16 17 21 20 23 25 28 30 31 29 29 29 29 29 33 29 32 30
6 7 7 7 8 7 7 9 9 9 8 7 8 9 10 11 12 14 17 18 21 25 27 27 34 33 32 29 26 25 26 27 31
7 11 9 7 7 6 7 7 8 7 7 8 7 5 2 1 4 7 9 13 14 14 16 29 36 31 32 33 30 26 23 28 39